INTELSAT 33E DEB, 64402

Orbit data source: Space-Track

INTELSAT 33E DEB, 64402 is space debris in GEO originally from a launch on Wed, 24 Aug 2016 UTC launched from the French Guiana (FRGUI). Debris objects in space refer to the collection of defunct objects orbiting the Earth. Examples of debris include non-operational satellites, rocket bodies, and fragments generated from explosions, collisions, or faulty payload assembly.

Not visible in the next 10 days
Identifier
64402, 2016-053AG
Orbit
GEO
Country
Flag of USUS / ITSO
Related business
Manufacturer
Boeing/ES
Mission
Spacecraft
Bus & Motor
Unknown
Mass
Unknown
Launch date (UTC)
2016-08-24 (10 years ago)
Launch vehicle
Unknown
Launch site
French Guiana (FRGUI)
Object type
Payload
Rocket body
Debris
Shape & HBR
Unknown shape, 1.1 m
Radar Cross Section
RCS unknown

Expand to show TLE details & history
Last TLE update: 1 day ago

TLE from 1 day ago
0 INTELSAT 33E DEB
1 64402U 16053AG  26120.13478448 -.00000278  00000-0  00000-0 0  9999
2 64402   1.3885  75.3648 0122264 101.2162 260.1888  0.98357244  5398
Epoch: 2026-04-30T03:14Z
TLE epoch observation values (Epoch: 2026-04-30T03:14:05.379Z)
Latitude
-0.00001°
Longitude
168.78405°
Altitude
36,429.532 km
Speed
3.048 km/s
True Right ascension
05h 01m 34s
True Declination
0° 00' 00"
Sunlit
Object was in daylight at epoch
Visualization orbit readout
Latitude
Unknown
Longitude
Unknown
Altitude
Unknown
Speed
Unknown
Apparent Right ascension
Unknown
Apparent Declination
Unknown
Sunlit
N/A
Visualization observer readout
Local Sidereal Time
21:43:33
Azimuth
Unknown
Elevation
Unknown
Doppler factor
Unknown
Orbital elements
Apogee altitude
36,855.258 km
Perigee altitude
35,810.85 km
Semi-major axis
42,711.191 km
Eccentricity
0.01223
Inclination
1.3885°
RAAN
75.3648°
Arg. of periapsis
101.2162°
True anomaly
258.81197°
Mean anomaly
260.1888°
Eccentric anomaly
259.50001°
Mean motion
0.24588 °/min
Orbital period
1,464.1 mins
BSTAR
0
Loading maneuver chart data...
Computing Atmospheric mass density...
Loading historical data...
Loading historical data...
Loading historical data...
Loading historical data...
Loading historical data...
Loading historical data...
Loading historical data...

Documentation

Showing up to 5 results
|